This demonstration page uses our WeatherBlox Daily Observations layout. Learn more.

Left ArrowRight Arrow

31.84235, -102.49876

Hourly Observations for November 12, 2015

Temp ( °F °C ) Dew Point ( °F °C ) Humidity (%) Winds ( mph kmh ) Pressure ( in mb ) Visibility ( mi km ) Precip ( " mm )
12:53 am 00:53 Clear 51 10.6 21 -6.1 31 31 NNW 13 20 30.07 1018 10 16 0.00 0.00
1:53 am 01:53 Clear 46 7.8 22 -5.6 38 38 NW 6 9 30.10 1019 10 16 0.00 0.00
2:53 am 02:53 Clear 47 8.3 22 -5.6 37 37 NNE 12 19 30.10 1019 10 16 0.00 0.00
3:53 am 03:53 Clear 43 6.1 23 -5 45 45 NNE 9 15 30.11 1020 10 16 0.00 0.00
4:53 am 04:53 Clear 43 6.1 23 -5 45 45 N 12 19 30.13 1020 10 16 0.00 0.00
5:53 am 05:53 Clear 39 3.9 23 -5 53 53 N 8 13 30.18 1022 10 16 0.00 0.00
6:53 am 06:53 Clear 39 3.9 23 -5 53 53 NNE 9 15 30.21 1023 10 16 0.00 0.00
7:53 am 07:53 Sunny 39 3.9 24 -4.4 55 55 NNE 9 15 30.24 1024 10 16 0.00 0.00
8:53 am 08:53 Sunny 49 9.4 28 -2.2 44 44 E 7 11 30.26 1025 10 16 0.00 0.00
9:53 am 09:53 Sunny 53 11.7 29 -1.7 40 40 SE 10 17 30.28 1025 10 16 0.00 0.00
10:53 am 10:53 Sunny 57 13.9 30 -1.1 36 36 SSE 13 20 30.27 1025 10 16 0.00 0.00
11:53 am 11:53 Sunny 59 15 29 -1.7 32 32 SSE 13 20 30.25 1025 10 16 0.00 0.00
12:53 pm 12:53 Sunny 63 17.2 29 -1.7 28 28 ESE 10 17 30.21 1023 10 16 0.00 0.00
1:53 pm 13:53 Sunny 64 17.8 26 -3.3 24 24 SSE 9 15 30.18 1022 10 16 0.00 0.00
2:53 pm 14:53 Sunny 65 18.3 24 -4.4 21 21 E 7 11 30.16 1021 10 16 0.00 0.00
3:53 pm 15:53 Sunny 66 18.9 24 -4.4 20 20 SSE 9 15 30.15 1021 10 16 0.00 0.00
4:53 pm 16:53 Sunny 64 17.8 25 -3.9 23 23 SE 10 17 30.15 1021 10 16 0.00 0.00
5:53 pm 17:53 Clear 59 15 26 -3.3 28 28 SE 9 15 30.17 1022 10 16 0.00 0.00
6:53 pm 18:53 Clear 55 12.8 28 -2.2 35 35 E 8 13 30.19 1022 10 16 0.00 0.00
7:53 pm 19:53 Mostly Clear 52 11.1 29 -1.7 41 41 E 9 15 30.21 1023 10 16 0.00 0.00
8:53 pm 20:53 Mostly Clear 54 12.2 28 -2.2 37 37 ESE 10 17 30.19 1023 10 16 0.00 0.00
9:53 pm 21:53 Mostly Cloudy 53 11.7 29 -1.7 40 40 ESE 10 17 30.20 1023 10 16 0.00 0.00
10:53 pm 22:53 Clear 52 11.1 30 -1.1 43 43 ESE 10 17 30.20 1023 10 16 0.00 0.00
11:53 pm 23:53 Partly Cloudy 50 10 31 -0.6 48 48 SE 9 15 30.20 1023 10 16 0.00 0.00

Powered by AerisWeather